sat.trackr.live / text

‹ back to catalog

CENTISPACE-1 S14

NORAD 62583 · 2025-007J

PAYLOAD ACTIVE UNKNOWN

§ Identity

Operator
Country
PRC
Launch date
2025-01-13
Launch site
YSLA
Launch vehicle
Mass (kg)
RCS (m²)

External: N2YO · Heavens-Above · Gunter

§ Orbital elements

Epoch: 2026-05-25T02:39:04.989024Z

Period
104.30 min
Inclination
54.9855°
Eccentricity
0.0012835
Mean motion
13.80602919 rev/d
Perigee alt
952.3 km
Apogee alt
971.2 km
Semi-major
7,339.9 km
B*
9.1232e-5
RAAN
13.2823°
Arg perigee
53.5273°
Mean anomaly
306.6864°
Rev number
7,152

§ Raw data

CENTISPACE-1 S141 62583U 25007J   26145.11047441 -.00000044  00000+0  91232-4 0  99972 62583  54.9855  13.2823 0012835  53.5273 306.6864 13.80602919 71522

JSON: /api/v1/satellites/62583 · /tle

For live sub-satellite position, see the globe view (requires WebGL).

§ Visibility from observer

Set your observer location to see the next 7 days of passes ≥ 10°. The values pass through the URL so the page stays shareable.

No JS? Fill the form by hand. The geolocation button needs JavaScript.